User: anonymous   Login
Location: Unspecified
(0.0000°N, 0.0000°E)
Time: 14:39:21
(UTC+00:00)
Language:

EUTE 9B - Orbit

View from above orbital plane
View from above orbital plane
View from above satellite
View from above satellite

Ground track
Ground track

The orbit data is extracted from the following two-line orbital elements,

1 41310U 16005A   21267.82733551  .00000057  00000-0  00000+0 0  9994
2 41310   0.0748  78.2404 0004976 168.1566  64.3131  1.00271191 20792
Epoch (UTC): 24 September 2021 19:51:21
Eccentricity: 0.0004976
inclination: 0.0748°
perigee height: 35765 km
apogee height: 35807 km
right ascension of ascending node: 78.2404°
argument of perigee: 168.1566°
revolutions per day: 1.00271191
mean anomaly at epoch: 64.3131°
orbit number at epoch: 2079

The dashed part of the orbit path shows where the satellite is in the earth's shadow,  

DLR